Lexington Weather

Lexington, Massachusetts, USA

60°F
10/23/2020 5:16pm 
  • Lexington Conditions: Overcast
  • Temperature: 60.4°F / 15.8°CColder 2.7°F than last hour.
  • Dew Point: 54.3°FDecreased 2.2°Fsince last hour.
  • Relative Humidity: 80%Increased 1.0% since last hour.
  • Wind: Wind from SE SE 1 mph, 10-min avg: 1 mph, gust: 4 mph
  • Barometer: 30.09 in Steady
  • Visibility: 10 miles
  • Rain Today: 0.00 in
  •   

Regional Weather Roundup
for Boston / Norton, MA

        
000
ASUS41 KBOX 220604
RWRBOX

REGIONAL WEATHER ROUNDUP
NATIONAL WEATHER SERVICE BOSTON/NORTON MA
200 AM EDT THU OCT 22 2020

NOTE:  "FAIR" INDICATES FEW OR NO CLOUDS BELOW 12,000 FEET WITH NO 
SIGNIFICANT WEATHER AND/OR OBSTRUCTIONS TO VISIBILITY.

MAZALL-220700-
EASTERN MASSACHUSETTS
  
CITY           SKY/WX    TMP DP  RH WIND       PRES   REMARKS
BOSTON         PTCLDY    64  62  93 SW5       30.20R                  
6HR MIN TEMP:  63; 6HR MAX TEMP:  65;                                

BEVERLY        CLEAR     62  61  96 SW5       30.19R                  
LAWRENCE       PTCLDY    63  61  93 S7        30.21R                  
BEDFORD        PTCLDY    62  61  96 CALM      30.19R                  
BLUE HILL        N/A     64  62  93 SW12      30.21R                  
NORWOOD        CLEAR     67  62  84 S3        30.20R                  
MARSHFIELD     CLOUDY    66  66 100 SW9       30.20S                  
PLYMOUTH       CLOUDY    65  63  93 SW9       30.22S                  
TAUNTON        CLOUDY    65  63  93 S3        30.22S                  
NEW BEDFORD    CLOUDY    65  64  97 W6        30.22S FOG              
$$

MAZALL-220700-
CAPE COD AND THE ISLANDS
  
CITY           SKY/WX    TMP DP  RH WIND       PRES   REMARKS
FALMOUTH       FOG       63  63 100 W12       30.23S VSB 1/4          
HYANNIS        CLOUDY    64  64 100 CALM      30.22R FOG              
CHATHAM        FOG       63  61  93 SW7       30.23F VSB 1/2          
PROVINCETOWN   CLOUDY    62  62 100 SW9       30.22S                  
NANTUCKET      CLEAR    N/A N/A N/A SW6       30.23S                  
MARTHAS VNYRD  CLOUDY    65  64  97 SW7       30.23S                  
$$
 
MAZALL-220700-
CENTRAL AND WESTERN MASSACHUSETTS
  
CITY           SKY/WX    TMP DP  RH WIND       PRES   REMARKS
WORCESTER      CLOUDY    64  60  87 W12       30.23R                  
6HR MIN TEMP:  64; 6HR MAX TEMP:  67;                                

FITCHBURG      MOCLDY    65  61  87 CALM      30.21R                  
ORANGE         PTCLDY    59  59 100 SW5       30.23S                  
SPRINGFIELD    CLOUDY    62  62 100 SW3       30.21S                  
WESTFIELD      CLOUDY    61  61 100 CALM      30.22S                  
NORTH ADAMS    CLOUDY    63  55  75 W9        30.24S                  
PITTSFIELD     CLOUDY    61  54  77 W3        30.24F                  
$$
 
RIZALL-220700-
RHODE ISLAND
  
CITY           SKY/WX    TMP DP  RH WIND       PRES   REMARKS
PROVIDENCE     CLOUDY    67  65  93 SW5       30.22S                  
6HR MIN TEMP:  65; 6HR MAX TEMP:  67;                                

NEWPORT        FOG       62  62 100 S3        30.22F VSB 1/2          
BLOCK ISLAND   LGT RAIN  62  61  96 W8        30.24S VSB 1/2          
SMITHFIELD     CLOUDY    66  66 100 VRB5        N/A                   
WESTERLY       FOG       63  62  97 VRB5      30.23S VSB 3/4          
$$
 
CTZALL-220700-
CONNECTICUT
  
CITY           SKY/WX    TMP DP  RH WIND       PRES   REMARKS
BRADLEY INTL   FOG       62  61  96 CALM      30.22R VSB 1            
6HR MIN TEMP:  61; 6HR MAX TEMP:  67;                                

HARTFORD       CLOUDY    66  63  90 S7        30.21F                  
BRIDGEPORT     CLOUDY    65  64  97 CALM      30.23R FOG              
DANBURY        CLOUDY    65  64  97 W5        30.24S FOG              
GROTON         FOG       64  64 100 W5        30.23S VSB 1/2          
NEW HAVEN      FOG       66  66 100 SE3       30.22S VSB 1/4          
CHESTER        FOG       64  64 100 CALM      30.24R VSB 1/4          
MERIDEN        CLOUDY    65  63  93 S3        30.23S FOG              
WILLIMANTIC    CLOUDY    66  64  93 S5        30.23R                  
OXFORD         FOG       64  64 100 CALM      30.25S VSB 1/2          
$$

MEZ002-015-021-024-NHZ003-005-008-011-012-014-VTZ005-008-220700-
NORTHERN NEW ENGLAND
  
CITY           SKY/WX    TMP DP  RH WIND       PRES   REMARKS
PORTLAND ME    FOG       54  54 100 SW3       30.17S VSB 1/2          
6HR MIN TEMP:  53; 6HR MAX TEMP:  54;                                

BANGOR ME      FOG       54  53  97 N5        30.17R VSB 1            
CONCORD NH     FOG       53  52  96 CALM      30.19S VSB 1/4          
MANCHESTER NH  MOCLDY    63  59  87 S5        30.18S                  
NASHUA NH      PTCLDY    61  61 100 CALM      30.20S                  
PORTSMOUTH NH  NOT AVBL                                               
JAFFREY NH     MOCLDY    62  59  90 SW5       30.22S                  
KEENE NH       CLOUDY    62  60  93 SW5       30.21F                  
BURLINGTON VT  CLEAR     52  47  83 CALM      30.24R                  
MT. WASHINGTON NOT AVBL                                               
$$

NYZ052-076-220700-
EASTERN NEW YORK
  
CITY           SKY/WX    TMP DP  RH WIND       PRES   REMARKS
ALBANY         MOCLDY    58  52  80 CALM      30.25S                  
6HR MIN TEMP:  57; 6HR MAX TEMP:  65; 6HR PCP: TRACE;                

NEW YORK CITY  CLOUDY    67  63  87 SW3       30.22R                  
6HR MIN TEMP:  65; 6HR MAX TEMP:  67;                                

$$
 
ANZALL-220700-
MARINE OBSERVATIONS
  
STATION/POSITION TIME  TEMP    WIND        PRES    VSBY  WAVE
                       AIR SEA DIR/SP/G                  HT/PER
                 (UTC) (F)     (DEG/KT/KT) (MB)    (MI)  (FT/S)
BOSTON BUOY      0550   62 58  190/  8/  8 1021.6R         3/10
BUZZARDS BAY     0500          250/ 11/ 12 1024.9S
NANTUCKET SOUND  0550      62  230/  6/  8   N/A           0
MASS BAY-STELLWA 0504   61 58  220/  8/ 10 1021.6S  1 7/8  4/ 8
ISLE OF SHOALS   0500   64     220/ 15/ 15 1021.4R
S OF BLOCK IS    0526      63                N/A           3/ 9
$$

......................KEY.........................
  SKY/WX - SKY CONDITION/PRESENT WEATHER
  TMP    - TEMPERATURE IN FAHRENHEIT
  DWPT   - DEWPOINT IN FAHRENHEIT
  RH     - RELATIVE HUMIDITY IN PERCENT
  WIND   - DIRECTION AND SPEED IN MPH
  PRES   - MEAN SEA LEVEL PRESSURE IN INCHES OF HG
  WCI    - WIND CHILL INDEX
  VSB    - VISIBILITY IN MILES
  HX     - HEAT INDEX
  TC     - TEMPERATURE IN CELSIUS
  VRB    - VARIABLE WIND DIRECTION
  N/A    - NOT AVAILABLE
  
      

Other recent Regional Weather Roundups

Fri Oct 23, 5:05pm

Fri Oct 23, 4:04pm

Fri Oct 23, 3:04pm

Fri Oct 23, 2:05pm

Fri Oct 23, 1:04pm

Fri Oct 23, 12:04pm

Fri Oct 23, 11:04am

Fri Oct 23, 10:04am

Fri Oct 23, 9:04am

Fri Oct 23, 8:04am

Fri Oct 23, 7:04am

Fri Oct 23, 6:04am

Fri Oct 23, 5:04am

Fri Oct 23, 4:04am

Fri Oct 23, 3:04am

Fri Oct 23, 2:04am

Fri Oct 23, 1:04am

Fri Oct 23, 12:04am

Thu Oct 22, 11:04pm

Thu Oct 22, 10:04pm

Thu Oct 22, 9:05pm

Thu Oct 22, 8:04pm

Thu Oct 22, 7:05pm

Thu Oct 22, 6:04pm

Thu Oct 22, 5:04pm

Thu Oct 22, 4:05pm

Thu Oct 22, 3:04pm

Thu Oct 22, 2:05pm

Thu Oct 22, 1:04pm

Thu Oct 22, 12:04pm

Thu Oct 22, 11:04am

Thu Oct 22, 10:05am

Thu Oct 22, 9:04am

Thu Oct 22, 8:05am

Thu Oct 22, 7:04am

Thu Oct 22, 6:04am

Thu Oct 22, 5:04am

Thu Oct 22, 4:04am

Thu Oct 22, 3:04am

Thu Oct 22, 1:04am

Thu Oct 22, 12:04am

Wed Oct 21, 11:05pm

Wed Oct 21, 10:04pm

Wed Oct 21, 9:04pm

Wed Oct 21, 8:04pm

Wed Oct 21, 7:04pm

Wed Oct 21, 6:04pm

Wed Oct 21, 5:05pm

Wed Oct 21, 4:04pm

Wed Oct 21, 3:04pm

Wed Oct 21, 2:05pm

Wed Oct 21, 1:04pm

Wed Oct 21, 12:04pm

Wed Oct 21, 11:04am

Wed Oct 21, 10:04am

Wed Oct 21, 9:04am

Wed Oct 21, 8:04am

Wed Oct 21, 7:04am

Wed Oct 21, 6:04am

Wed Oct 21, 5:04am

Wed Oct 21, 4:04am

Wed Oct 21, 3:04am

Wed Oct 21, 2:04am

Wed Oct 21, 1:04am

Wed Oct 21, 12:04am

Tue Oct 20, 11:05pm

Tue Oct 20, 10:04pm

Tue Oct 20, 9:04pm

Tue Oct 20, 8:05pm

Tue Oct 20, 7:04pm

Tue Oct 20, 6:04pm

Tue Oct 20, 5:05pm

Tue Oct 20, 4:04pm

Tue Oct 20, 3:05pm

Tue Oct 20, 2:07pm

Tue Oct 20, 1:04pm

Tue Oct 20, 12:04pm

Tue Oct 20, 11:04am

Tue Oct 20, 10:05am

Tue Oct 20, 9:04am

Tue Oct 20, 8:04am

Tue Oct 20, 7:04am

Tue Oct 20, 6:04am

Tue Oct 20, 5:04am

Tue Oct 20, 4:04am

Tue Oct 20, 3:04am

Tue Oct 20, 2:04am

Tue Oct 20, 1:04am

Tue Oct 20, 12:04am

Mon Oct 19, 11:04pm

Mon Oct 19, 10:04pm

Mon Oct 19, 9:04pm

Mon Oct 19, 8:04pm

Mon Oct 19, 7:04pm

Mon Oct 19, 6:04pm

Mon Oct 19, 5:04pm

Mon Oct 19, 4:04pm

Mon Oct 19, 3:04pm

Mon Oct 19, 2:04pm

Mon Oct 19, 1:05pm

Mon Oct 19, 12:04pm

Mon Oct 19, 11:04am

Mon Oct 19, 10:04am

Mon Oct 19, 9:04am

Mon Oct 19, 8:04am

Mon Oct 19, 7:04am

Mon Oct 19, 6:04am

Mon Oct 19, 5:04am

Mon Oct 19, 4:04am

Mon Oct 19, 3:04am

Mon Oct 19, 2:04am

Mon Oct 19, 1:04am

Mon Oct 19, 12:05am

Sun Oct 18, 11:04pm

Sun Oct 18, 10:04pm

Sun Oct 18, 9:04pm

Sun Oct 18, 8:04pm

Sun Oct 18, 7:05pm

Sun Oct 18, 6:04pm

Sun Oct 18, 5:05pm

Sun Oct 18, 4:05pm

Sun Oct 18, 3:04pm

Sun Oct 18, 2:05pm

Sun Oct 18, 1:04pm

Sun Oct 18, 12:04pm

Sun Oct 18, 11:04am

Sun Oct 18, 10:04am

Sun Oct 18, 9:04am

Sun Oct 18, 8:04am

Sun Oct 18, 7:04am

Sun Oct 18, 6:04am

Sun Oct 18, 5:04am

Sun Oct 18, 4:04am

Sun Oct 18, 3:04am

Sun Oct 18, 2:04am

Sun Oct 18, 1:04am

Sun Oct 18, 12:04am

Sat Oct 17, 11:05pm

Sat Oct 17, 10:04pm

Sat Oct 17, 9:04pm

Sat Oct 17, 8:04pm

Sat Oct 17, 7:04pm

Sat Oct 17, 6:04pm

Sat Oct 17, 5:05pm

Sat Oct 17, 4:04pm

Sat Oct 17, 3:04pm

Sat Oct 17, 2:05pm

Sat Oct 17, 1:05pm

Sat Oct 17, 12:04pm

Sat Oct 17, 11:05am

Sat Oct 17, 10:04am

Sat Oct 17, 9:04am

Sat Oct 17, 8:04am

Sat Oct 17, 7:04am

Sat Oct 17, 6:04am

Sat Oct 17, 5:04am

Sat Oct 17, 4:04am

Sat Oct 17, 3:04am

Sat Oct 17, 2:04am

Sat Oct 17, 1:05am

Sat Oct 17, 12:04am

Fri Oct 16, 11:05pm

Fri Oct 16, 10:04pm

Fri Oct 16, 9:05pm

Fri Oct 16, 8:04pm

Fri Oct 16, 7:05pm

Fri Oct 16, 6:04pm

Meta data:

ID: 0c1c3f29-3284-40ba-b61e-87c0585e7f20
Link: https://api.weather.gov/products/0c1c3f29-3284-40ba-b61e-87c0585e7f20